This demonstration page uses our WeatherBlox Daily Observations layout. Learn more.

Left ArrowRight Arrow

40.92945, -100.16068

Hourly Observations for July 4, 2020

Temp ( °F °C ) Dew Point ( °F °C ) Humidity (%) Winds ( mph kmh ) Pressure ( in mb ) Visibility ( mi km ) Precip ( " mm )
12:15 am 00:15 Clear 69 20.6 66 19 91 91 Calm 30.03 1017 10 16.0934 0 0
12:35 am 00:35 Clear 68 20.1 65 18.6 91 91 Calm 30.03 1017 10 16.0934 0 0
12:55 am 00:55 Clear 68 20.2 66 18.7 91 91 Calm 30.03 1017 10 16.0934 0 0
1:15 am 01:15 Clear 69 20.4 65 18.3 88 88 SSE 3 6 30.04 1017 10 16.0934 0 0
1:35 am 01:35 Clear 69 20.3 65 18.3 88 88 Calm 30.03 1017 10 16.0934 0 0
1:55 am 01:55 Clear 69 20.7 65 18.4 87 87 Calm 30.03 1017 10 16.0934 0 0
2:15 am 02:15 Clear 70 21.1 65 18.6 86 86 Calm 30.02 1017 10 16.0934 0 0
2:35 am 02:35 Clear 69 20.5 65 18.2 87 87 Calm 30.02 1017 10 16.0934 0 0
2:55 am 02:55 Clear 67 19.6 64 17.9 90 90 Calm 30.03 1017 10 16.0934 0 0
3:15 am 03:15 Clear 65 18.4 64 17.5 95 95 ESE 3 6 30.03 1017 10 16.0934 0 0
3:35 am 03:35 Clear 65 18.5 64 17.6 95 95 Calm 30.02 1017 10 16.0934 0 0
3:55 am 03:55 Clear 64 17.6 63 17.1 97 97 Calm 30.02 1017 7 11.26538 0 0
4:15 am 04:15 Clear 64 17.9 62 16.9 94 94 E 5 7 30.01 1016 10 16.0934 0 0
4:35 am 04:35 Clear 64 17.8 62 16.8 94 94 Calm 30 1016 10 16.0934 0 0
4:55 am 04:55 Clear 64 17.5 62 16.7 95 95 E 6 9 30 1016 7 11.26538 0 0
5:15 am 05:15 Clear 63 17.2 62 16.5 96 96 Calm 30.01 1016 7 11.26538 0 0
5:35 am 05:35 Clear 63 17 62 16.5 97 97 E 3 6 30.02 1017 7 11.26538 0 0
5:55 am 05:55 Clear 63 17 61 16.3 96 96 E 5 7 30.01 1016 7 11.26538 0 0
6:15 am 06:15 Sunny with Mist and Fog 62 16.8 61 16 95 95 E 5 7 30.01 1016 5 8.0467 0 0
6:35 am 06:35 Sunny with Mist and Fog 63 17.3 62 16.6 96 96 E 5 7 30.01 1016 5 8.0467 0 0
6:55 am 06:55 Sunny with Mist and Fog 64 17.7 63 17 96 96 E 5 7 30.01 1016 5 8.0467 0 0
7:15 am 07:15 Sunny 66 19.1 64 18 93 93 ESE 3 6 30 1016 7 11.26538 0 0
7:35 am 07:35 Sunny 69 20.6 65 18.1 86 86 SE 5 7 30 1016 10 16.0934 0 0
7:55 am 07:55 Sunny 69 20.5 64 18 86 86 SE 3 6 30 1016 10 16.0934 0 0
8:15 am 08:15 Sunny 71 21.6 65 18.2 81 81 SSE 6 9 29.99 1016 10 16.0934 0 0
8:35 am 08:35 Sunny 72 22.1 65 18.4 80 80 SSE 5 7 29.99 1016 10 16.0934 0 0
8:55 am 08:55 Sunny 74 23.5 65 18.3 73 73 SSE 3 6 29.98 1015 10 16.0934 0 0
9:15 am 09:15 Sunny 77 24.8 65 18.3 67 67 S 6 9 29.98 1015 10 16.0934 0 0
9:35 am 09:35 Sunny 80 26.5 66 18.8 63 63 S 7 11 29.97 1015 10 16.0934 0 0
9:55 am 09:55 Sunny 81 27.4 65 18.3 58 58 S 6 9 29.96 1015 10 16.0934 0 0
10:15 am 10:15 Sunny 83 28.1 64 17.8 54 54 S 7 11 29.95 1014 10 16.0934 0 0
10:35 am 10:35 Sunny 84 28.8 64 17.7 51 51 SE 8 13 29.95 1014 10 16.0934 0 0
10:55 am 10:55 Sunny 84 29 64 17.8 51 51 SSE 8 13 29.95 1014 10 16.0934 0 0
11:15 am 11:15 Sunny 86 30.1 64 17.6 47 47 SE 9 15 29.94 1014 10 16.0934 0 0
11:35 am 11:35 Sunny 85 29.4 65 18.2 51 51 SE 9 15 29.94 1014 10 16.0934 0 0
11:55 am 11:55 Sunny 85 29.4 65 18.6 52 52 SE 10 17 29.94 1014 10 16.0934 0 0
12:15 pm 12:15 Sunny 86 29.8 66 18.8 52 52 SE 10 17 29.94 1014 10 16.0934 0 0
12:35 pm 12:35 Sunny 86 29.8 67 19.2 53 53 ESE 9 15 29.94 1014 10 16.0934 0 0
12:55 pm 12:55 Partly Cloudy 87 30.7 67 19.2 50 50 SE 12 19 29.92 1013 10 16.0934 0 0
1:15 pm 13:15 Partly Cloudy 87 30.6 66 18.8 49 49 ESE 10 17 29.92 1013 10 16.0934 0 0
1:35 pm 13:35 Sunny 87 30.8 65 18.5 48 48 ESE 10 17 29.92 1013 10 16.0934 0 0
1:55 pm 13:55 Partly Cloudy 88 31.1 65 18.6 47 47 SE 10 17 29.91 1013 10 16.0934 0 0
2:15 pm 14:15 Partly Cloudy 88 31.3 66 18.8 47 47 SE 8 13 29.9 1012 7 11.26538 0 0
2:35 pm 14:35 Partly Cloudy 89 31.6 66 18.8 47 47 SE 10 17 29.9 1012 7 11.26538 0 0
2:55 pm 14:55 Hazy 88 31.2 65 18.1 46 46 SSE 8 13 29.9 1012 2.5 4.02335 0 0
3:15 pm 15:15 Partly Cloudy 89 31.5 65 18.3 45 45 ESE 12 19 29.89 1012 10 16.0934 0 0
3:35 pm 15:35 Partly Cloudy 90 32.2 65 18.2 43 43 ESE 12 19 29.87 1012 7 11.26538 0 0
3:55 pm 15:55 Partly Cloudy 90 32 64 18 43 43 ESE 12 19 29.87 1012 10 16.0934 0 0
4:15 pm 16:15 Partly Cloudy 89 31.9 65 18.2 44 44 SE 12 19 29.86 1011 10 16.0934 0 0
4:35 pm 16:35 Partly Cloudy 89 31.5 64 17.9 44 44 SE 12 19 29.86 1011 7 11.26538 0 0
4:55 pm 16:55 Partly Cloudy 90 32 64 17.8 43 43 SE 9 15 29.85 1011 10 16.0934 0 0
5:15 pm 17:15 Partly Cloudy 90 32.2 64 17.5 41 41 SSE 7 11 29.85 1011 10 16.0934 0 0
5:35 pm 17:35 Partly Cloudy 89 31.8 64 17.9 43 43 SE 9 15 29.84 1011 10 16.0934 0 0
5:55 pm 17:55 Sunny 89 31.5 64 17.6 43 43 SSE 10 17 29.84 1010 10 16.0934 0 0
6:15 pm 18:15 Sunny 89 31.5 64 17.9 44 44 SE 7 11 29.83 1010 10 16.0934 0 0
6:35 pm 18:35 Sunny 88 31.1 63 17.4 44 44 SE 8 13 29.82 1010 10 16.0934 0 0
6:55 pm 18:55 Sunny 88 30.9 64 17.9 46 46 SSE 8 13 29.81 1010 10 16.0934 0 0
7:15 pm 19:15 Sunny 87 30.6 64 17.6 46 46 SSE 9 15 29.81 1010 10 16.0934 0 0
7:35 pm 19:35 Sunny 86 30.2 65 18.2 49 49 S 9 15 29.83 1010 10 16.0934 0 0
7:55 pm 19:55 Sunny 86 29.8 64 17.7 48 48 SSE 8 13 29.82 1010 10 16.0934 0 0
8:15 pm 20:15 Sunny 84 28.8 66 18.7 54 54 SSE 7 11 29.84 1010 10 16.0934 0 0
8:35 pm 20:35 Sunny 82 27.6 67 19.4 61 61 SSE 6 9 29.85 1011 10 16.0934 0 0
8:55 pm 20:55 Sunny 80 26.6 67 19.4 65 65 SSE 6 9 29.87 1011 10 16.0934 0 0
9:15 pm 21:15 Clear 80 26.6 67 19.2 64 64 SE 5 7 29.88 1012 10 16.0934 0 0
9:35 pm 21:35 Clear 79 26 67 19.5 67 67 SE 6 9 29.89 1012 10 16.0934 0 0
9:55 pm 21:55 Clear 77 25.2 67 19.6 71 71 SE 6 9 29.91 1013 10 16.0934 0 0
10:15 pm 22:15 Clear 77 25.1 68 19.8 73 73 ESE 7 11 29.92 1013 7 11.26538 0 0
10:35 pm 22:35 Clear 76 24.7 68 20 75 75 SE 8 13 29.93 1014 10 16.0934 0 0
10:55 pm 22:55 Clear 76 24.5 67 19.6 74 74 SE 9 15 29.93 1014 10 16.0934 0 0
11:15 pm 23:15 Clear 75 23.8 67 19.7 78 78 SE 8 13 29.94 1014 10 16.0934 0 0
11:35 pm 23:35 Clear 74 23.4 67 19.3 78 78 SE 8 13 29.94 1014 7 11.26538 0 0
11:55 pm 23:55 Clear 72 22.4 66 18.9 81 81 SE 7 11 29.94 1014 10 16.0934 0 0

Powered by AerisWeather